Social login voor leden:
METAR EBOS 301220Z 14023KT CAVOK 19/M01 Q1003 NOSIG
TAF EBOS 301120Z 3012/0118 15017G29KT CAVOK BECMG 3015/3017 11011KT PROB30 TEMPO 3019/3021 12016G28KT BECMG 3022/3024 18011KT PROB40 TEMPO 3023/0102 4000 RA SHRA BKN014TCU BECMG 0116/0118 VRB03KT PROB30 TEMPO 0116/0118 4000 SHRA

Klik hier voor meer info over de Luchtvaartdag op 22 april 2017

 

NZVC is de eerste Belgische vliegclub met een erkenning als 'Approved Training Organisation (ATO)'

Sinds 3 maart 2015 is de Noordzee Vliegclub Oostende erkend door de Europese Unie en de Belgian Civil Aviation Authority als Approved Training Organisation (ATO). Hierbij zijn we de eerste vliegclub in België die voldoet aan de nieuwste en strengste Europese normen inzake organisatie, kwaliteit en veiligheid bij de opleiding tot Privaat Piloot (PPL).

 

Opleiding Piloot
Luchtdopen
Visit Us
Agenda
Opleiding Piloot
Doopvluchten
Visit Us
Volgende activiteit
Noordzee Vliegclub - Nieuwpoortsesteenweg 947 8400 Oostende - Tel 059 30 04 79 - Dit e-mailadres wordt beveiligd tegen spambots. JavaScript dient ingeschakeld te zijn om het te bekijken.

 - Copyright 2017 ©